Wind_Speed
17 17 15 15 15 15 16 16 15 15 15 14 14 14 15 16 17 18 18 19 18 18 17 17 16 15 15 14 13 12 11 10 9 9 8 7 5 4 2 2 3 3 3
15 15 13 13 12 12 12 12 12 12 12 12 12 12 13 14 15 16 17 17 17 17 16 16 16 15 14 13 13 12 11 10 9 9 8 7 6 5 3 1 1 2 2
12 11 10 9 9 9 9 9 10 10 11 11 10 10 11 12 13 14 15 16 16 16 16 15 14 14 14 13 12 11 11 10 10 9 8 8 7 6 4 2 1 0 1
9 7 6 7 7 6 7 8 8 9 9 9 9 9 9 10 11 12 13 14 15 15 15 15 14 13 13 12 11 11 10 10 10 9 9 8 8 7 6 4 2 1 1
6 5 4 4 5 5 6 7 7 8 9 9 9 9 9 10 10 11 12 13 14 14 15 15 14 13 12 11 10 10 9 9 10 10 9 8 8 8 7 6 4 3 3
3 1 2 3 4 4 5 6 7 7 8 9 9 9 9 9 10 10 11 12 13 14 14 14 14 13 12 11 9 9 8 9 9 10 9 8 8 8 7 7 5 4 3
0 2 2 3 3 4 4 5 6 7 8 9 9 9 8 9 9 9 10 11 12 12 13 13 13 12 11 11 10 9 8 8 9 10 10 9 7 7 8 8 7 6 5
3 4 3 3 3 4 4 5 5 6 7 8 8 8 8 7 8 8 8 9 10 11 11 12 12 12 11 10 9 9 8 8 9 10 10 10 9 8 9 9 9 8 8
7 6 6 5 5 5 5 5 5 5 6 7 7 7 6 6 6 6 7 7 9 10 11 12 12 12 11 10 9 9 9 8 8 9 11 11 11 10 10 11 11 10 10
9 9 8 8 7 7 7 6 6 6 7 7 7 7 6 5 5 5 5 7 8 10 11 12 13 14 14 13 12 11 10 9 9 10 11 11 11 12 12 12 12 12 11
12 11 10 9 9 9 9 8 8 8 9 9 8 8 7 6 6 6 6 7 8 10 11 13 14 15 15 15 14 13 12 12 11 11 12 12 12 12 13 13 13 13 13
13 12 12 11 11 11 11 11 12 12 12 11 10 9 9 8 8 8 7 8 8 9 10 12 13 15 16 16 16 15 15 14 14 14 14 14 14 14 14 14 15 14 14
14 14 13 13 13 13 14 14 14 14 14 13 12 11 10 10 10 10 10 10 9 10 11 12 13 14 16 16 16 16 16 17 17 17 17 16 16 15 16 16 16 15 15
15 15 15 15 16 16 17 17 16 16 16 15 14 14 13 13 12 12 12 12 12 12 12 13 14 15 16 16 16 17 17 18 19 20 20 19 18 17 17 17 17 17 16
17 17 18 18 18 19 19 19 19 18 19 18 16 15 15 15 15 14 14 15 15 14 14 14 15 16 16 17 17 18 19 19 20 21 21 21 21 19 19 19 18 18 17
21 20 21 21 21 22 22 22 22 21 21 20 19 18 18 18 17 16 16 15 15 15 15 15 16 17 18 18 19 20 21 21 21 22 22 23 23 22 21 21 20 19 19
25 25 25 25 25 26 26 26 26 26 25 25 24 22 22 20 19 18 17 17 17 17 17 18 18 19 20 20 22 22 23 23 23 23 23 24 25 25 24 23 22 22 21
28 28 28 28 29 29 31 30 30 30 30 29 28 27 25 23 22 20 19 19 19 19 20 21 21 22 23 23 24 25 26 26 25 25 25 25 26 26 26 26 25 24 24
31 30 31 31 31 32 33 34 33 33 33 32 32 30 29 26 24 23 22 22 21 22 23 24 24 25 25 26 26 27 28 29 28 28 27 27 27 28 28 27 27 27 26
33 33 32 32 33 34 35 36 36 36 36 36 35 34 32 30 28 26 25 24 24 25 26 27 27 28 28 29 30 30 31 32 31 31 30 29 29 29 29 29 29 29 28
36 35 35 35 36 37 38 38 38 39 39 39 38 37 36 34 31 29 28 27 26 27 29 30 30 31 32 33 34 34 33 34 34 34 33 32 31 31 30 30 29 30 30
37 36 35 37 38 38 38 39 41 42 42 42 41 40 39 36 33 30 29 28 28 29 30 31 32 33 34 37 38 38 36 35 37 37 36 34 33 33 32 31 30 30 30
37 37 38 39 39 40 41 42 43 43 43 43 42 41 40 38 35 31 30 29 29 30 30 32 34 35 36 38 40 41 40 37 37 37 38 37 36 35 34 33 32 31 31
39 39 41 41 42 41 41 42 43 43 43 42 41 38 38 35 33 30 28 27 28 29 31 33 35 37 38 39 40 41 42 41 39 36 37 38 37 36 35 35 34 33 32
44 45 45 45 44 44 43 43 42 42 41 39 36 34 33 31 29 28 27 28 29 31 32 34 37 38 39 40 40 40 40 40 39 38 35 36 37 37 36 35 34 34 34
51 51 50 49 48 47 46 44 43 41 39 36 34 32 31 30 29 29 29 31 32 34 35 37 38 39 40 40 39 39 39 38 38 37 35 33 34 36 36 35 34 35 36
Wind_Direction
108 108 106 103 99 95 91 86 81 75 68 62 56 50 46 44 43 42 42 42 44 45 46 47 47 48 49 50 50 49 50 50 49 47 43 41 43 50 78 115 135 143 141
110 111 109 104 99 94 89 84 78 72 66 60 54 47 42 37 35 34 35 35 35 38 40 42 44 44 45 46 45 43 41 41 42 42 41 40 41 42 48 74 138 165 188
114 113 110 103 95 88 82 76 70 66 61 56 51 44 37 31 28 26 26 25 25 28 30 33 36 39 41 42 42 39 34 32 30 31 32 32 33 35 35 32 35 167 217
119 119 112 98 88 77 69 62 58 55 52 47 43 39 31 25 21 18 16 15 15 17 20 23 26 30 33 36 37 36 31 26 22 21 22 22 24 26 26 21 6 340 308
121 125 108 85 74 62 53 49 48 46 43 39 36 32 26 19 14 10 7 5 5 7 9 12 17 20 23 26 28 28 24 18 14 14 17 17 13 11 14 15 5 338 316
113 113 61 56 53 46 39 34 33 30 27 24 23 21 18 13 10 6 3 1 359 359 0 3 6 11 15 17 18 18 15 9 3 3 8 13 8 359 357 357 353 339 317
317 316 354 19 20 18 17 17 17 18 20 19 19 17 15 11 8 6 5 3 0 359 359 358 358 1 6 10 10 9 5 2 355 352 356 0 359 352 344 338 333 325 309
273 291 310 328 337 343 351 360 4 10 15 15 14 14 14 12 12 11 12 10 6 4 1 358 356 354 356 358 359 358 354 350 346 343 342 346 346 340 336 331 324 316 304
269 278 287 297 304 310 319 330 340 348 355 359 359 360 1 5 9 11 10 8 4 1 358 355 353 347 343 342 342 341 341 337 335 333 332 332 333 331 330 329 324 319 310
267 273 279 284 291 297 305 310 318 325 329 334 337 339 341 341 343 346 350 352 353 354 355 353 350 344 337 330 326 324 323 325 325 322 322 322 321 320 319 319 319 318 314
266 270 276 280 286 291 296 298 302 311 315 317 314 315 316 316 314 318 325 335 342 347 350 348 346 342 337 329 322 317 313 313 312 313 313 312 309 307 307 308 309 309 309
265 268 272 277 281 285 289 290 295 302 305 306 304 301 298 293 294 300 307 315 324 333 339 343 342 341 338 331 322 316 310 307 304 303 304 304 301 298 297 298 299 300 301
265 267 268 272 278 281 284 287 291 295 299 300 298 296 290 285 285 289 293 299 306 317 327 336 339 338 338 336 329 320 310 303 301 298 297 296 296 294 292 292 293 293 295
267 268 270 272 275 278 281 284 286 288 291 294 293 290 287 284 284 284 286 290 295 307 320 328 334 335 336 336 332 327 318 305 299 297 293 290 290 290 288 287 288 288 289
270 271 272 273 276 277 280 282 282 283 284 285 287 287 285 284 284 284 283 286 291 298 308 316 320 326 329 330 328 326 322 314 303 297 293 289 287 286 285 283 283 285 286
272 273 275 276 278 278 279 280 280 281 281 281 281 282 282 283 284 286 286 288 292 295 301 306 310 315 318 322 322 320 321 318 310 301 296 291 287 285 283 281 281 282 283
271 271 273 275 277 278 277 276 276 278 279 280 280 281 281 281 282 284 286 287 290 293 297 299 302 305 309 313 316 317 316 315 311 307 301 295 288 284 281 279 278 278 278
269 269 270 272 275 277 276 274 274 275 277 278 280 281 281 281 282 284 285 286 287 289 293 294 295 297 300 304 307 309 310 309 307 303 300 296 290 285 281 278 275 274 273
265 268 270 272 273 275 275 274 274 273 274 276 277 278 279 280 281 282 283 284 285 286 289 289 289 292 294 296 300 302 303 304 303 300 297 293 289 284 280 277 274 273 270
264 265 268 271 272 271 271 270 270 269 271 272 273 274 275 276 278 280 281 282 282 283 284 285 286 288 290 292 295 297 298 298 297 296 294 291 288 283 279 276 274 272 269
263 264 266 267 270 271 270 269 266 266 266 266 267 269 270 272 275 277 280 279 280 280 281 281 283 286 289 290 292 292 293 293 293 292 291 288 285 282 278 275 274 271 269
261 263 266 268 270 272 271 270 268 266 265 263 266 267 266 268 271 273 275 276 278 279 280 281 283 285 287 289 290 290 289 289 289 289 288 285 282 279 276 272 271 270 267
263 263 266 268 271 273 272 271 272 269 263 263 263 261 262 265 267 268 270 273 275 277 279 281 283 286 287 289 290 290 289 287 285 285 284 283 280 276 272 269 268 267 266
265 267 270 273 274 274 272 270 268 267 264 262 263 263 263 265 267 269 272 273 275 277 280 282 285 287 288 289 289 290 289 288 286 282 281 280 278 275 271 267 265 265 264
271 273 275 277 276 275 274 272 269 265 262 262 263 264 266 270 271 274 276 277 278 280 282 284 287 289 290 290 290 289 289 288 286 284 280 277 275 274 271 267 264 263 263
273 274 276 277 278 276 276 277 275 270 266 265 264 264 268 269 272 275 276 277 280 282 285 287 289 290 291 291 291 290 288 287 286 284 282 276 273 271 270 267 264 261 261
Height
5914 5914 5915 5915 5915 5914 5914 5913 5913 5913 5913 5913 5913 5913 5912 5912 5911 5910 5910 5909 5909 5908 5907 5906 5905 5904 5903 5902 5900 5899 5899 5898 5897 5896 5895 5895 5894 5893 5892 5892 5892 5891 5891
5916 5916 5917 5917 5916 5916 5915 5915 5915 5915 5915 5914 5914 5914 5914 5913 5912 5912 5911 5910 5910 5909 5908 5907 5907 5905 5904 5903 5902 5901 5900 5899 5898 5897 5896 5896 5895 5894 5893 5892 5892 5892 5891
5918 5918 5919 5918 5918 5917 5917 5916 5916 5916 5916 5916 5916 5916 5915 5915 5914 5913 5912 5911 5911 5910 5909 5908 5907 5906 5905 5904 5903 5901 5900 5900 5899 5898 5897 5896 5895 5895 5894 5893 5892 5892 5891
5920 5920 5920 5919 5919 5919 5918 5918 5917 5917 5917 5917 5917 5917 5916 5916 5915 5914 5913 5912 5911 5910 5909 5908 5907 5906 5905 5904 5903 5902 5901 5900 5899 5898 5897 5897 5896 5895 5894 5893 5893 5892 5891
5921 5921 5921 5920 5920 5920 5919 5919 5918 5918 5918 5918 5917 5917 5917 5916 5916 5915 5914 5913 5912 5911 5910 5908 5907 5906 5905 5904 5904 5903 5901 5900 5899 5899 5898 5897 5896 5895 5895 5894 5893 5892 5891
5922 5923 5922 5921 5921 5920 5920 5920 5919 5919 5918 5918 5918 5917 5917 5916 5916 5915 5914 5913 5912 5910 5909 5908 5907 5906 5905 5904 5903 5902 5901 5900 5899 5898 5898 5897 5896 5895 5894 5894 5893 5892 5892
5923 5924 5923 5922 5922 5921 5921 5920 5920 5919 5919 5918 5918 5917 5917 5916 5915 5914 5913 5912 5911 5910 5909 5907 5906 5905 5904 5904 5903 5902 5901 5900 5899 5898 5897 5896 5896 5895 5894 5893 5893 5892 5892
5923 5923 5923 5922 5922 5921 5921 5920 5920 5919 5919 5918 5918 5917 5916 5915 5915 5914 5913 5912 5911 5909 5908 5907 5906 5905 5904 5903 5902 5901 5900 5899 5898 5897 5896 5895 5895 5894 5893 5892 5891 5891 5891
5923 5923 5922 5922 5922 5921 5921 5920 5919 5919 5919 5918 5918 5917 5916 5915 5914 5914 5913 5912 5910 5909 5907 5906 5905 5904 5902 5901 5901 5900 5899 5898 5897 5896 5895 5894 5893 5893 5892 5891 5890 5889 5889
5922 5922 5922 5921 5921 5921 5920 5920 5919 5919 5918 5918 5917 5917 5916 5915 5914 5913 5912 5911 5910 5908 5907 5905 5904 5902 5901 5900 5899 5898 5897 5896 5896 5894 5893 5892 5892 5891 5890 5889 5889 5888 5887
5920 5920 5920 5920 5920 5920 5919 5919 5918 5918 5917 5917 5916 5916 5915 5914 5913 5912 5911 5910 5908 5907 5905 5904 5902 5900 5899 5897 5896 5896 5895 5894 5893 5892 5891 5890 5889 5889 5888 5887 5887 5886 5885
5918 5918 5918 5918 5918 5918 5918 5918 5917 5917 5916 5916 5915 5915 5914 5913 5912 5911 5910 5909 5907 5906 5904 5902 5901 5899 5897 5895 5894 5893 5892 5892 5891 5890 5889 5888 5887 5886 5885 5885 5884 5883 5883
5915 5915 5915 5916 5916 5916 5916 5915 5915 5915 5914 5914 5913 5913 5912 5911 5910 5909 5908 5907 5905 5904 5902 5900 5899 5897 5895 5893 5892 5891 5889 5888 5888 5887 5886 5885 5884 5883 5882 5882 5881 5881 5880
5913 5913 5913 5913 5913 5913 5913 5913 5912 5912 5912 5911 5910 5910 5909 5909 5908 5907 5906 5905 5903 5902 5900 5898 5896 5895 5893 5891 5889 5888 5886 5885 5884 5883 5882 5882 5881 5880 5879 5878 5878 5877 5877
5910 5910 5910 5910 5910 5910 5909 5909 5909 5909 5908 5908 5907 5906 5905 5905 5904 5903 5902 5901 5900 5899 5897 5895 5894 5892 5891 5889 5887 5885 5883 5882 5880 5879 5878 5877 5877 5876 5875 5875 5874 5873 5873
5907 5907 5907 5907 5907 5906 5906 5905 5905 5904 5904 5904 5903 5902 5901 5900 5900 5899 5898 5897 5896 5895 5893 5892 5891 5889 5888 5886 5884 5881 5879 5877 5876 5874 5873 5872 5872 5871 5870 5870 5869 5869 5868
5903 5903 5903 5902 5902 5902 5901 5900 5900 5899 5899 5899 5898 5898 5897 5896 5895 5894 5893 5892 5891 5890 5889 5888 5887 5885 5884 5882 5880 5877 5875 5873 5871 5869 5868 5867 5866 5865 5865 5865 5864 5864 5864
5897 5897 5897 5897 5897 5896 5895 5894 5894 5893 5893 5892 5892 5891 5891 5890 5890 5889 5888 5887 5886 5885 5884 5883 5882 5880 5879 5877 5875 5873 5870 5868 5866 5864 5863 5861 5860 5859 5859 5859 5859 5859 5858
5890 5890 5890 5890 5890 5889 5888 5888 5887 5886 5886 5885 5884 5884 5883 5883 5883 5882 5882 5882 5881 5879 5878 5877 5876 5875 5873 5871 5870 5868 5865 5863 5861 5859 5857 5856 5854 5853 5853 5852 5852 5852 5852
5883 5883 5882 5882 5882 5881 5880 5880 5879 5878 5877 5877 5876 5876 5876 5875 5875 5875 5875 5874 5874 5873 5872 5871 5869 5868 5866 5864 5863 5861 5859 5857 5855 5853 5851 5849 5848 5846 5846 5846 5845 5845 5845
5875 5875 5874 5874 5873 5872 5871 5871 5870 5869 5868 5868 5867 5867 5867 5867 5867 5867 5867 5866 5866 5865 5864 5863 5861 5860 5858 5856 5855 5854 5853 5850 5848 5846 5844 5842 5841 5839 5839 5838 5838 5838 5838
5864 5865 5865 5864 5862 5862 5862 5861 5860 5859 5858 5858 5857 5857 5856 5857 5857 5857 5857 5857 5857 5857 5856 5855 5853 5852 5850 5848 5846 5845 5845 5844 5840 5838 5836 5834 5833 5832 5831 5831 5831 5831 5831
5854 5855 5854 5853 5852 5852 5852 5851 5850 5848 5848 5848 5847 5846 5846 5847 5847 5847 5847 5848 5848 5848 5847 5846 5845 5843 5842 5839 5836 5834 5834 5834 5832 5830 5827 5825 5824 5824 5823 5823 5823 5823 5823
5844 5843 5843 5843 5843 5842 5841 5840 5840 5839 5837 5837 5836 5835 5836 5837 5837 5837 5838 5838 5839 5839 5839 5838 5836 5834 5832 5831 5828 5825 5823 5821 5821 5821 5818 5816 5814 5814 5814 5815 5815 5815 5815
5836 5835 5835 5834 5833 5832 5831 5830 5829 5828 5826 5826 5826 5826 5827 5828 5828 5829 5830 5830 5830 5830 5830 5828 5827 5825 5823 5821 5818 5816 5813 5811 5809 5809 5810 5807 5805 5804 5805 5806 5806 5806 5807
5826 5825 5824 5823 5822 5821 5820 5819 5819 5817 5816 5816 5817 5818 5818 5820 5821 5822 5822 5822 5822 5821 5820 5819 5817 5815 5813 5811 5808 5806 5804 5802 5800 5799 5799 5799 5797 5796 5795 5796 5797 5797 5798